Tracking 18816 objects as of 17-October-2017
HD Live streaming from Space Station
objects crossing your sky now

MERIDIAN 3

Track MERIDIAN 3 now!
MERIDIAN 3 is classified as:


NORAD ID: 37212
Int'l Code: 2010-058A
Perigee: 1,663.3 km
Apogee: 38,706.6 km
Inclination: 63.3 °
Period: 717.8 minutes
Semi major axis: 26555 km
RCS: 24.3984 m2 (large)
Launch date: November 2, 2010
Source: Commonwealth of Independent States (former USSR) (CIS)
Launch site: PLESETSK MISSILE AND SPACE COMPLEX (PKMTR)

MERIDIAN 3 is a Russian military communications satellite.
aabbcc
Your satellite tracking list
Your tracking list is empty





NASA's NSSDC Master Catalog

Two Line Element Set (TLE):
1 37212U 10058A   17289.68579701 +.00000112 +00000-0 +10000-3 0  9997
2 37212 063.2896 059.8155 6974589 274.1865 211.1859 02.00613468050951
Source of the keplerian elements: AFSPC